[[{"header":{"parameterUnit":"m.s-1","parameterCategory":1,"la1":30.2991,"la2":30.254,"lo1":-89.0895,"lo2":-89.0444,"dy":0.0017,"dx":0.0017,"nx":28,"ny":28,"refTime":"2025-06-07T09:00:00:Z","depth":0,"parameterNumber":2,"parameterNumberName":"U-component_of_WINDS"},"data":[0,0,0,0,0,0,0,0,0,0,0,0,0,0,0,0,0,0,0,0,0,0,0,0,0,0,0,0,0,0,0,0,0,0,0,0,0,0,0,0,0,0,0,0,0,0,0,0,0,0,0,0,0,0,0,0,0,0,6.5909,6.5911,0,6.6103,6.6105,6.6107,6.6073,6.607,6.6067,6.6063,6.626,6.6268,6.6276,0,0,0,0,0,0,0,0,0,0,0,0,0,6.5505,6.5513,6.5909,6.5911,6.5914,6.6102,6.6105,6.6108,6.6074,6.607,6.6066,6.6062,6.6257,6.6267,6.6277,0,0,0,0,0,0,0,0,0,0,0,0,0,6.5688,6.5515,6.5908,6.592,6.5923,6.6102,6.6105,6.6108,6.6075,6.607,6.6065,6.606,6.6254,6.6266,6.6278,6.6458,0,0,6.6317,6.6322,0,0,0,0,0,0,0,0,6.5677,6.5703,6.5916,6.5919,6.5923,6.6059,6.6035,6.6226,6.6076,6.6017,6.6063,6.6057,6.6197,6.6214,6.6261,6.6467,6.6476,6.6318,6.6326,6.6331,6.6335,0,0,0,0,0,0,0,6.5665,6.5694,6.5985,6.5919,6.5923,6.5913,6.5934,6.6071,6.6133,6.6022,6.602,6.6043,6.6198,6.6249,6.6266,6.6479,6.6318,6.6329,6.6337,6.6342,6.6836,6.6842,0,0,0,0,0,0,6.5649,6.5684,6.5979,6.5991,6.5785,6.5925,6.5948,6.602,6.6132,6.6144,6.6047,6.6041,6.623,6.6251,6.6272,6.6486,6.6331,6.6343,6.635,6.6831,6.6838,6.6844,0,0,0,0,0,0,6.5641,6.5676,6.5971,6.5837,6.5874,6.5937,6.6019,6.6027,6.6078,6.6151,6.6162,6.6089,6.6227,6.6255,6.6411,6.6492,6.6348,6.636,6.6824,6.6833,6.6841,6.6917,0,0,0,0,0,0,6.5629,6.5673,6.5743,6.5839,6.5881,6.6108,6.6024,6.6034,6.61,6.6093,6.6192,6.6204,6.6225,6.6393,6.6424,6.6507,6.637,6.6817,6.6828,6.6838,6.6907,6.6927,6.6944,0,0,0,0,0,6.5615,6.5758,6.5747,6.5783,6.597,6.6113,6.6137,6.6159,6.6107,6.6176,6.6223,6.6201,6.6479,6.6409,6.6444,6.6532,6.6812,6.6825,6.6837,6.6899,6.6923,6.6943,0,0,0,0,0,0,6.567,6.577,6.576,6.5938,6.6017,6.6107,6.6196,6.6185,6.628,6.627,6.6293,6.6315,6.6473,6.6519,6.6439,6.6709,6.6638,6.6658,6.6673,6.6697,6.6714,6.6698,6.638,0,0,0,0,0,6.5703,6.5811,6.5893,6.6042,6.6083,6.6133,6.6196,6.6206,6.6289,6.6322,6.638,6.646,6.6565,6.6634,6.6735,6.6915,6.6933,6.6992,6.7011,6.7025,6.7041,6.7135,6.716,6.6885,6.6885,6.6885,0,0,6.5771,6.584,6.5907,6.6055,6.6118,6.6227,6.6161,6.6281,6.6362,6.634,6.649,6.6535,6.6626,6.6794,6.6871,6.6837,6.7122,6.7041,6.7052,6.706,6.715,6.7176,6.7199,6.6893,6.6892,6.6891,0,0,6.5952,6.6017,6.6145,6.6209,6.6305,6.6337,6.6368,6.646,6.6488,6.664,6.6624,6.672,6.6902,6.6966,6.7023,6.7225,6.7206,6.7257,6.735,6.7441,6.7463,6.7482,6.755,6.7574,6.7274,6.7274,6.7274,0,6.6025,6.6191,6.6213,6.6334,6.6398,6.6383,6.6512,6.6573,6.6696,6.6739,6.6701,6.6925,6.6986,6.7166,6.7215,6.7263,6.7296,6.7245,6.7458,6.7478,6.7496,6.7561,6.7587,6.7279,6.7279,6.7278,6.7278,0,6.6273,6.6389,6.6481,6.66,6.6675,6.6799,6.6838,6.6911,6.6914,6.6949,6.7101,6.7174,6.7287,6.7331,6.7336,6.7511,6.7486,6.7453,6.7381,6.7527,6.7588,6.7613,6.7287,6.7285,6.7283,6.7282,0,0,6.6493,6.6621,6.6654,6.6706,6.681,6.6898,6.7021,6.7132,6.7191,6.7277,6.7378,6.7531,6.7499,6.7563,6.7575,6.7656,6.7805,6.7612,6.7614,6.7641,6.7997,6.8018,6.8047,6.7795,6.78,6.7804,6.7987,0,6.6679,6.6896,6.6919,6.7111,6.7215,6.7202,6.7308,6.7382,6.7418,6.751,6.755,6.7656,6.7609,6.7647,6.7726,6.777,6.7876,6.7758,6.7885,6.789,6.7859,6.8079,6.8103,6.8273,6.8012,6.8016,6.8019,0,6.6926,6.7017,6.722,6.7305,6.735,6.7445,6.7546,6.7636,6.7718,6.7739,6.7809,6.781,6.7933,6.7859,6.8027,6.7946,6.8,6.8029,6.8036,6.8045,6.796,6.809,6.8328,6.8352,6.8058,6.8055,6.8052,0,6.706,6.7234,6.7377,6.7422,6.7527,6.7593,6.7639,6.7717,6.7781,6.7869,6.791,6.8012,6.8067,6.8145,6.8172,6.8117,6.8338,6.8267,6.8355,6.8354,6.8399,6.8395,6.8644,6.8441,6.8441,6.844,6.844,0,6.7263,6.7387,6.7437,6.7525,6.7661,6.7686,6.782,6.7863,6.7931,6.8025,6.8021,6.8108,6.8141,6.8233,6.8256,6.8389,6.8415,6.8432,6.8436,6.843,6.8427,6.8463,6.845,6.8447,6.8446,6.8444,6.8443,0,6.7434,6.7474,6.7628,6.7714,6.7738,6.7834,6.7907,6.799,6.8024,6.8142,6.8172,6.8225,6.8333,6.8369,6.8501,6.8515,6.8669,6.8665,6.8641,6.864,6.8724,6.8714,6.9001,6.9038,6.8815,6.8817,6.8819,0,6.756,6.7654,6.7749,6.7812,6.786,6.7962,6.8026,6.8054,6.8121,6.822,6.829,6.8397,6.8484,6.8657,6.8706,6.8806,6.8801,6.8895,6.8816,6.8806,6.8797,6.8789,6.8796,6.8908,6.8911,6.8913,6.8914,0,6.7776,6.779,6.7884,6.7984,6.8061,6.8142,6.8219,6.827,6.8308,6.8384,6.8494,6.8561,6.8694,6.8799,6.89,6.8946,6.8935,6.8939,6.8964,6.8957,6.8937,6.8944,6.8676,6.8931,6.893,6.8928,6.8928,6.8927,6.7925,6.8006,6.8085,6.8189,6.825,6.8321,6.8402,6.8446,6.8539,6.8649,6.866,6.8777,6.8854,6.8988,6.9039,6.913,6.9103,6.914,6.9148,6.9156,6.916,6.8926,6.9149,6.9148,6.9148,6.9148,6.9147,0,6.8136,6.8186,6.8282,6.8389,6.847,6.8455,6.8539,6.8606,6.871,6.8783,6.8868,6.8993,6.9094,6.9151,6.9252,6.9313,6.931,6.9338,6.9332,6.9341,6.9181,6.9147,6.9338,6.9338,6.9338,6.9338,6.9338,6.9338,6.8256,6.8391,6.8414,6.8579,6.8627,6.8743,6.8791,6.8856,6.8914,6.9053,6.9137,6.9174,6.924,6.9345,6.9436,6.945,6.9485,6.9515,6.9525,6.9373,6.9353,6.9334,6.9303,6.9523,6.9524,6.9677,6.9679,6.968]},{"header":{"parameterUnit":"m.s-1","parameterCategory":1,"la1":30.2991,"la2":30.254,"lo1":-89.0895,"lo2":-89.0444,"dy":0.0017,"dx":0.0017,"nx":28,"ny":28,"refTime":"2025-06-07T09:00:00:Z","depth":0,"parameterNumber":3,"parameterNumberName":"V-component_of_WINDS"},"data":[0,0,0,0,0,0,0,0,0,0,0,0,0,0,0,0,0,0,0,0,0,0,0,0,0,0,0,0,0,0,0,0,0,0,0,0,0,0,0,0,0,0,0,0,0,0,0,0,0,0,0,0,0,0,0,0,0,0,4.3356,4.3357,0,4.3484,4.3486,4.3487,4.3457,4.3454,4.3452,4.345,4.358,4.3586,4.3591,0,0,0,0,0,0,0,0,0,0,0,0,0,4.3081,4.3086,4.3356,4.3357,4.3359,4.3484,4.3486,4.3488,4.3457,4.3454,4.3451,4.3449,4.3578,4.3585,4.3592,0,0,0,0,0,0,0,0,0,0,0,0,0,4.3204,4.3087,4.3355,4.3359,4.336,4.3484,4.3486,4.3488,4.3458,4.3454,4.3451,4.3447,4.3576,4.3584,4.3593,4.372,0,0,4.3619,4.3623,0,0,0,0,0,0,0,0,4.3197,4.3214,4.3357,4.3359,4.3361,4.3451,4.3437,4.3566,4.3459,4.3421,4.345,4.3445,4.354,4.3551,4.3584,4.3726,4.3732,4.362,4.3625,4.3629,4.3631,0,0,0,0,0,0,0,4.3188,4.3208,4.3407,4.3359,4.3361,4.3353,4.3366,4.3461,4.35,4.3424,4.3422,4.3438,4.354,4.3575,4.3586,4.3734,4.362,4.3628,4.3633,4.3636,4.3986,4.3989,0,0,0,0,0,0,4.3178,4.3201,4.3402,4.341,4.3268,4.3361,4.3376,4.3426,4.3498,4.3506,4.3441,4.3436,4.3562,4.3576,4.3591,4.3744,4.3629,4.3637,4.3642,4.3982,4.3987,4.3991,0,0,0,0,0,0,4.3173,4.3197,4.3397,4.3305,4.333,4.337,4.3426,4.343,4.3465,4.3511,4.3518,4.347,4.356,4.3579,4.3688,4.3748,4.3641,4.3649,4.3977,4.3983,4.3989,4.4052,0,0,0,0,0,0,4.3165,4.3195,4.3244,4.3307,4.3335,4.3493,4.3429,4.3435,4.348,4.3475,4.354,4.3547,4.3559,4.3675,4.3697,4.3758,4.3656,4.3972,4.398,4.3987,4.4044,4.4059,4.4072,0,0,0,0,0,4.3155,4.3257,4.3247,4.3272,4.3398,4.3497,4.3513,4.3525,4.3485,4.3535,4.3564,4.3545,4.3738,4.3687,4.3711,4.3775,4.3968,4.3977,4.3986,4.4038,4.4056,4.4071,0,0,0,0,0,0,4.3201,4.3265,4.3255,4.338,4.3433,4.3492,4.3555,4.3544,4.3609,4.3601,4.3612,4.3626,4.3738,4.3767,4.3709,4.3901,4.3847,4.3861,4.3878,4.3896,4.3909,4.39,4.3663,0,0,0,0,0,4.3225,4.3301,4.3353,4.3458,4.3485,4.3516,4.3559,4.3563,4.3618,4.364,4.3678,4.3731,4.3804,4.3851,4.3921,4.4048,4.4061,4.4104,4.4118,4.4129,4.4141,4.4209,4.4229,4.4021,4.4021,4.4021,0,0,4.3277,4.3322,4.3369,4.3468,4.351,4.3587,4.3535,4.3619,4.3675,4.3653,4.3758,4.3787,4.3848,4.3966,4.4021,4.3995,4.4201,4.4141,4.4149,4.4156,4.4221,4.424,4.4258,4.4027,4.4026,4.4025,0,0,4.341,4.3452,4.3544,4.3587,4.365,4.3669,4.3691,4.3751,4.377,4.3876,4.386,4.3927,4.4052,4.4095,4.4134,4.4281,4.4266,4.4303,4.4375,4.4441,4.4458,4.4472,4.4524,4.4543,4.4315,4.4316,4.4316,0,4.3467,4.3583,4.3593,4.3678,4.3721,4.3704,4.3797,4.3837,4.392,4.395,4.392,4.4075,4.4115,4.4243,4.4278,4.431,4.4335,4.4296,4.4455,4.4469,4.4483,4.4533,4.4552,4.432,4.4319,4.4319,4.4318,0,4.3648,4.3728,4.3795,4.3875,4.3926,4.4015,4.4037,4.4087,4.4086,4.4108,4.4215,4.4262,4.434,4.437,4.437,4.4498,4.4479,4.4452,4.4397,4.4507,4.4554,4.4573,4.4326,4.4324,4.4323,4.4322,0,0,4.3815,4.3899,4.3923,4.3958,4.4026,4.4088,4.4175,4.4251,4.4294,4.4351,4.4423,4.4528,4.4503,4.4546,4.4551,4.4609,4.4722,4.4574,4.4576,4.46,4.4864,4.4884,4.4906,4.4711,4.4715,4.4718,4.4859,0,4.3954,4.4108,4.4118,4.4257,4.433,4.4314,4.4389,4.4439,4.4461,4.4526,4.455,4.4624,4.4585,4.4611,4.4668,4.4696,4.4775,4.4686,4.4778,4.4781,4.4764,4.4931,4.4953,4.5083,4.4877,4.488,4.4882,0,4.4137,4.42,4.4346,4.4402,4.4433,4.4501,4.4571,4.4633,4.4688,4.47,4.4748,4.4744,4.4831,4.4773,4.4893,4.4832,4.487,4.489,4.4895,4.4904,4.4839,4.4944,4.5125,4.5145,4.4911,4.4909,4.4907,0,4.4244,4.4364,4.4467,4.4498,4.4566,4.4614,4.4644,4.4696,4.474,4.4801,4.483,4.49,4.4938,4.4992,4.5006,4.4962,4.5125,4.5069,4.5137,4.5137,4.5173,4.517,4.5362,4.5197,4.5197,4.5196,4.5196,0,4.4398,4.4488,4.4515,4.4579,4.4678,4.4688,4.4786,4.4814,4.4859,4.4926,4.4916,4.4979,4.4994,4.506,4.5071,4.5168,4.5186,4.5197,4.5199,4.5198,4.5197,4.5223,4.5215,4.5202,4.5201,4.52,4.5199,0,4.4534,4.4556,4.4667,4.4722,4.4738,4.4809,4.4855,4.4915,4.4936,4.5021,4.5041,4.5073,4.5149,4.5169,4.526,4.5268,4.5382,4.5376,4.5364,4.5364,4.5431,4.5424,4.5647,4.5676,4.5492,4.5494,4.5495,0,4.4631,4.47,4.4762,4.4807,4.4839,4.4911,4.4956,4.4969,4.5016,4.5083,4.5134,4.5209,4.527,4.5393,4.5424,4.5493,4.5488,4.5561,4.5499,4.5495,4.5489,4.5484,4.5491,4.5573,4.5575,4.5577,4.5578,0,4.4801,4.4808,4.4874,4.4944,4.4998,4.5054,4.5107,4.5144,4.5163,4.5217,4.5295,4.5342,4.5435,4.5509,4.5579,4.5609,4.5597,4.5598,4.5617,4.5617,4.5607,4.5613,4.5397,4.5593,4.5591,4.559,4.5589,4.5589,4.492,4.498,4.5033,4.5106,4.5147,4.5197,4.5255,4.5283,4.5348,4.5425,4.5428,4.5513,4.5564,4.5656,4.569,4.5756,4.5734,4.5762,4.5769,4.5776,4.5782,4.5596,4.5769,4.5768,4.5768,4.5768,4.5767,0,4.5089,4.5122,4.5189,4.5263,4.5321,4.5304,4.5362,4.5411,4.5486,4.5535,4.5595,4.5684,4.5755,4.5791,4.5862,4.5908,4.5904,4.5926,4.5923,4.593,4.5798,4.5774,4.5928,4.5928,4.5928,4.5928,4.5928,4.5928,4.5183,4.5283,4.5296,4.5416,4.5448,4.5531,4.5565,4.561,4.5649,4.5749,4.5809,4.5832,4.5875,4.5949,4.6014,4.6022,4.6048,4.6074,4.6079,4.5955,4.5939,4.5923,4.5901,4.6079,4.6079,4.6205,4.6207,4.6207]}]]